QPF
0.01 0.04 0.07 0.15 0.12 0.09 0.04 0.02 0.01 0.01 0.01 0.01 0.01 0.01 0.02 0.02 0.03 0.04 0.06 0.03 0.02 0.03 0.03 0.03 0.05 0.08 0.15 0.08 0.06 0.06 0.05 0.04 0.04 0.05 0.05 0.04 0.03 0.02 0.02 0.01 0.01 0.02 0.02 0.02 0.02 0.02 0.01 0.01 0.02
0.03 0.07 0.10 0.19 0.13 0.05 0.04 0.02 0.02 0.01 0.00 0.00 0.00 0.00 0.00 0.01 0.01 0.02 0.07 0.05 0.03 0.02 0.01 0.01 0.05 0.06 0.10 0.07 0.07 0.08 0.08 0.07 0.06 0.06 0.05 0.04 0.03 0.02 0.01 0.01 0.01 0.01 0.02 0.02 0.02 0.02 0.01 0.01 0.01
0.07 0.14 0.15 0.13 0.06 0.04 0.04 0.03 0.04 0.03 0.00 0.00 0.00 0.00 0.00 0.01 0.01 0.02 0.05 0.06 0.05 0.02 0.01 0.01 0.03 0.04 0.06 0.04 0.04 0.05 0.07 0.07 0.05 0.03 0.03 0.03 0.02 0.01 0.02 0.01 0.01 0.01 0.01 0.02 0.03 0.03 0.03 0.02 0.02
0.10 0.14 0.10 0.07 0.04 0.03 0.02 0.02 0.01 0.01 0.00 0.00 0.00 0.00 0.00 0.01 0.02 0.03 0.04 0.04 0.02 0.01 0.01 0.01 0.02 0.02 0.03 0.02 0.02 0.03 0.05 0.06 0.05 0.04 0.04 0.04 0.03 0.03 0.03 0.02 0.01 0.02 0.02 0.02 0.02 0.02 0.03 0.02 0.02
0.05 0.06 0.06 0.06 0.03 0.02 0.01 0.01 0.00 0.01 0.00 0.00 0.00 0.00 0.00 0.01 0.01 0.04 0.05 0.02 0.01 0.00 0.00 0.01 0.01 0.01 0.01 0.01 0.01 0.02 0.03 0.03 0.03 0.04 0.04 0.03 0.03 0.04 0.04 0.04 0.03 0.02 0.01 0.01 0.01 0.03 0.03 0.03 0.02
0.10 0.07 0.05 0.04 0.02 0.01 0.00 0.00 0.00 0.01 0.00 0.00 0.00 0.01 0.00 0.01 0.01 0.03 0.03 0.02 0.01 0.01 0.00 0.00 0.01 0.02 0.02 0.01 0.01 0.02 0.03 0.02 0.01 0.02 0.02 0.02 0.01 0.01 0.02 0.02 0.03 0.02 0.01 0.01 0.02 0.02 0.03 0.03 0.03
0.14 0.08 0.04 0.02 0.01 0.01 0.00 0.00 0.00 0.00 0.00 0.00 0.00 0.00 0.00 0.01 0.01 0.02 0.02 0.01 0.01 0.02 0.01 0.00 0.00 0.01 0.01 0.02 0.03 0.03 0.03 0.02 0.01 0.02 0.02 0.02 0.02 0.01 0.01 0.01 0.01 0.01 0.02 0.02 0.02 0.02 0.02 0.03 0.03
0.05 0.06 0.03 0.01 0.00 0.00 0.00 0.00 0.00 0.00 0.00 0.00 0.00 0.00 0.00 0.01 0.01 0.01 0.02 0.02 0.02 0.02 0.02 0.01 0.00 0.00 0.00 0.02 0.03 0.03 0.02 0.01 0.01 0.02 0.03 0.02 0.02 0.02 0.02 0.01 0.02 0.02 0.02 0.02 0.02 0.03 0.02 0.01 0.02
0.02 0.03 0.02 0.01 0.00 0.00 0.00 0.00 0.00 0.00 0.00 0.00 0.00 0.00 0.00 0.00 0.00 0.01 0.02 0.03 0.03 0.03 0.03 0.03 0.02 0.01 0.01 0.01 0.01 0.00 0.00 0.01 0.01 0.02 0.04 0.02 0.01 0.02 0.02 0.02 0.03 0.04 0.04 0.04 0.03 0.03 0.02 0.01 0.02
0.02 0.02 0.01 0.00 0.00 0.00 0.00 0.00 0.00 0.00 0.00 0.00 0.00 0.00 0.00 0.00 0.00 0.01 0.01 0.02 0.01 0.02 0.03 0.03 0.02 0.02 0.02 0.01 0.01 0.01 0.00 0.00 0.01 0.01 0.02 0.03 0.03 0.02 0.02 0.04 0.08 0.07 0.07 0.06 0.06 0.05 0.03 0.02 0.02
0.01 0.00 0.00 0.00 0.00 0.00 0.00 0.00 0.00 0.00 0.00 0.00 0.00 0.00 0.00 0.00 0.00 0.00 0.00 0.00 0.00 0.01 0.01 0.02 0.02 0.02 0.02 0.02 0.03 0.02 0.01 0.01 0.01 0.01 0.01 0.04 0.05 0.03 0.04 0.04 0.06 0.06 0.06 0.04 0.04 0.03 0.02 0.02 0.02
0.00 0.00 0.00 0.00 0.00 0.00 0.00 0.00 0.00 0.00 0.00 0.00 0.00 0.00 0.00 0.00 0.00 0.00 0.00 0.00 0.00 0.00 0.00 0.01 0.01 0.01 0.01 0.02 0.03 0.03 0.02 0.02 0.01 0.01 0.01 0.02 0.03 0.03 0.03 0.03 0.03 0.04 0.03 0.02 0.03 0.03 0.02 0.02 0.02
0.00 0.00 0.00 0.00 0.00 0.00 0.00 0.00 0.00 0.00 0.00 0.00 0.00 0.00 0.00 0.00 0.00 0.00 0.00 0.00 0.00 0.00 0.00 0.00 0.00 0.01 0.01 0.01 0.02 0.02 0.02 0.02 0.02 0.02 0.01 0.01 0.02 0.01 0.02 0.02 0.02 0.02 0.02 0.02 0.03 0.03 0.02 0.02 0.02
0.00 0.00 0.00 0.00 0.00 0.00 0.00 0.00 0.00 0.00 0.00 0.00 0.00 0.00 0.00 0.00 0.00 0.00 0.00 0.00 0.00 0.00 0.00 0.00 0.00 0.01 0.01 0.01 0.01 0.02 0.03 0.03 0.03 0.05 0.03 0.02 0.02 0.02 0.02 0.02 0.01 0.02 0.02 0.02 0.03 0.02 0.02 0.02 0.02
0.01 0.01 0.00 0.00 0.00 0.00 0.00 0.00 0.01 0.00 0.00 0.00 0.00 0.00 0.00 0.00 0.00 0.00 0.00 0.00 0.00 0.00 0.00 0.00 0.00 0.00 0.00 0.01 0.01 0.02 0.06 0.03 0.05 0.09 0.03 0.03 0.03 0.02 0.02 0.03 0.02 0.02 0.03 0.02 0.04 0.05 0.04 0.03 0.02
0.02 0.01 0.00 0.00 0.00 0.00 0.00 0.00 0.02 0.01 0.00 0.00 0.00 0.00 0.00 0.00 0.00 0.00 0.00 0.00 0.00 0.00 0.00 0.00 0.00 0.00 0.00 0.01 0.01 0.02 0.04 0.02 0.03 0.04 0.03 0.05 0.05 0.03 0.02 0.03 0.03 0.03 0.03 0.03 0.04 0.03 0.04 0.03 0.02
0.01 0.02 0.01 0.00 0.00 0.00 0.00 0.00 0.00 0.00 0.00 0.00 0.00 0.00 0.00 0.00 0.00 0.00 0.00 0.00 0.00 0.00 0.00 0.00 0.00 0.00 0.00 0.01 0.01 0.02 0.02 0.02 0.01 0.02 0.03 0.05 0.08 0.06 0.03 0.03 0.03 0.03 0.04 0.04 0.04 0.03 0.03 0.02 0.02
0.02 0.02 0.02 0.01 0.01 0.00 0.00 0.00 0.00 0.00 0.00 0.00 0.00 0.00 0.00 0.00 0.00 0.00 0.00 0.00 0.00 0.00 0.00 0.00 0.00 0.01 0.01 0.01 0.02 0.02 0.02 0.03 0.02 0.01 0.02 0.03 0.04 0.04 0.04 0.04 0.03 0.02 0.04 0.05 0.05 0.05 0.04 0.03 0.04
0.02 0.01 0.01 0.01 0.01 0.01 0.01 0.00 0.00 0.00 0.00 0.00 0.00 0.00 0.00 0.00 0.00 0.00 0.00 0.00 0.00 0.00 0.00 0.00 0.00 0.00 0.00 0.01 0.01 0.01 0.02 0.02 0.02 0.01 0.02 0.03 0.03 0.03 0.04 0.04 0.04 0.04 0.04 0.05 0.05 0.04 0.04 0.04 0.04
0.01 0.01 0.01 0.01 0.01 0.01 0.01 0.01 0.00 0.00 0.01 0.01 0.00 0.00 0.00 0.00 0.00 0.00 0.00 0.00 0.00 0.00 0.00 0.00 0.00 0.00 0.00 0.00 0.00 0.01 0.02 0.02 0.01 0.01 0.02 0.02 0.02 0.02 0.03 0.04 0.05 0.06 0.05 0.05 0.06 0.06 0.06 0.06 0.05
0.01 0.01 0.01 0.01 0.01 0.01 0.01 0.01 0.01 0.01 0.01 0.01 0.01 0.01 0.00 0.00 0.00 0.00 0.00 0.00 0.00 0.00 0.00 0.00 0.00 0.00 0.00 0.00 0.00 0.00 0.01 0.02 0.02 0.02 0.02 0.02 0.02 0.02 0.02 0.02 0.03 0.04 0.05 0.05 0.04 0.04 0.05 0.05 0.06
0.01 0.00 0.01 0.01 0.01 0.01 0.01 0.02 0.02 0.02 0.01 0.01 0.03 0.02 0.01 0.00 0.00 0.00 0.00 0.00 0.00 0.00 0.00 0.00 0.00 0.00 0.00 0.00 0.00 0.00 0.00 0.01 0.02 0.01 0.02 0.02 0.02 0.02 0.01 0.02 0.04 0.04 0.03 0.03 0.03 0.03 0.03 0.04 0.05
0.00 0.00 0.00 0.01 0.01 0.01 0.02 0.03 0.01 0.02 0.02 0.03 0.02 0.01 0.01 0.00 0.01 0.01 0.00 0.00 0.00 0.00 0.00 0.00 0.00 0.00 0.00 0.00 0.00 0.00 0.01 0.01 0.02 0.02 0.02 0.03 0.03 0.03 0.02 0.02 0.03 0.04 0.04 0.04 0.03 0.03 0.04 0.05 0.05
0.00 0.00 0.00 0.00 0.01 0.01 0.01 0.03 0.02 0.02 0.03 0.04 0.02 0.01 0.01 0.00 0.00 0.00 0.00 0.00 0.00 0.00 0.00 0.00 0.00 0.00 0.00 0.00 0.00 0.00 0.01 0.01 0.01 0.01 0.02 0.02 0.03 0.03 0.03 0.02 0.02 0.02 0.05 0.05 0.03 0.03 0.03 0.03 0.03
0.00 0.00 0.01 0.01 0.00 0.00 0.01 0.03 0.04 0.03 0.03 0.04 0.03 0.01 0.01 0.01 0.01 0.01 0.02 0.05 0.02 0.01 0.01 0.01 0.01 0.02 0.01 0.01 0.01 0.01 0.01 0.02 0.01 0.00 0.01 0.02 0.02 0.02 0.01 0.01 0.01 0.02 0.03 0.05 0.06 0.04 0.04 0.03 0.03
0.00 0.00 0.01 0.01 0.00 0.01 0.01 0.02 0.04 0.03 0.03 0.03 0.03 0.02 0.02 0.02 0.01 0.02 0.02 0.04 0.04 0.03 0.03 0.03 0.03 0.04 0.03 0.02 0.02 0.02 0.02 0.02 0.01 0.01 0.01 0.01 0.01 0.01 0.01 0.01 0.01 0.02 0.02 0.03 0.04 0.05 0.05 0.04 0.03
0.00 0.00 0.00 0.00 0.00 0.01 0.01 0.01 0.01 0.03 0.02 0.02 0.03 0.05 0.03 0.03 0.03 0.05 0.11 0.10 0.06 0.03 0.04 0.05 0.04 0.04 0.04 0.03 0.02 0.02 0.02 0.02 0.02 0.01 0.01 0.01 0.01 0.01 0.02 0.02 0.01 0.02 0.03 0.03 0.04 0.04 0.05 0.04 0.03
0.00 0.00 0.00 0.00 0.00 0.01 0.02 0.02 0.02 0.03 0.03 0.02 0.03 0.05 0.03 0.03 0.02 0.04 0.08 0.06 0.04 0.04 0.05 0.06 0.08 0.05 0.06 0.06 0.04 0.02 0.02 0.02 0.01 0.01 0.01 0.01 0.01 0.01 0.02 0.02 0.01 0.01 0.01 0.02 0.03 0.04 0.05 0.06 0.05
0.00 0.00 0.00 0.00 0.00 0.00 0.01 0.03 0.03 0.04 0.05 0.03 0.02 0.03 0.03 0.02 0.02 0.02 0.04 0.09 0.09 0.08 0.09 0.09 0.09 0.07 0.08 0.07 0.05 0.04 0.03 0.02 0.02 0.02 0.02 0.01 0.01 0.02 0.02 0.02 0.02 0.02 0.02 0.02 0.03 0.05 0.05 0.06 0.05
0.00 0.00 0.00 0.00 0.00 0.00 0.00 0.02 0.03 0.03 0.03 0.03 0.03 0.07 0.08 0.02 0.02 0.02 0.05 0.13 0.10 0.08 0.11 0.11 0.10 0.09 0.07 0.06 0.05 0.06 0.07 0.04 0.03 0.03 0.02 0.02 0.02 0.02 0.02 0.02 0.02 0.02 0.02 0.03 0.04 0.05 0.04 0.04 0.04
MSLP
1008.33 1009.42 1010.55 1011.54 1012.23 1012.54 1012.45 1012.04 1011.46 1010.88 1010.46 1010.30 1010.42 1010.77 1011.26 1011.74 1012.11 1012.29 1012.26 1012.08 1011.84 1011.61 1011.49 1011.50 1011.64 1011.86 1012.11 1012.31 1012.45 1012.50 1012.50 1012.51 1012.56 1012.70 1012.93 1013.24 1013.58 1013.92 1014.21 1014.43 1014.59 1014.72 1014.84 1014.98 1015.15 1015.36 1015.58 1015.78 1015.96
1008.48 1009.72 1010.94 1011.94 1012.56 1012.74 1012.47 1011.86 1011.07 1010.30 1009.71 1009.41 1009.42 1009.71 1010.15 1010.63 1011.04 1011.29 1011.38 1011.35 1011.26 1011.20 1011.23 1011.37 1011.61 1011.90 1012.19 1012.41 1012.55 1012.61 1012.63 1012.65 1012.72 1012.87 1013.11 1013.41 1013.73 1014.03 1014.28 1014.47 1014.60 1014.71 1014.82 1014.97 1015.15 1015.37 1015.60 1015.82 1016.01
1008.74 1010.08 1011.33 1012.28 1012.80 1012.83 1012.40 1011.63 1010.69 1009.79 1009.10 1008.71 1008.65 1008.88 1009.29 1009.76 1010.18 1010.48 1010.66 1010.74 1010.79 1010.86 1011.02 1011.27 1011.59 1011.93 1012.24 1012.47 1012.62 1012.69 1012.72 1012.75 1012.84 1013.00 1013.23 1013.51 1013.79 1014.05 1014.25 1014.40 1014.51 1014.61 1014.73 1014.89 1015.11 1015.35 1015.61 1015.85 1016.06
1009.09 1010.46 1011.66 1012.51 1012.90 1012.79 1012.24 1011.38 1010.38 1009.44 1008.72 1008.31 1008.22 1008.41 1008.79 1009.23 1009.64 1009.96 1010.19 1010.34 1010.49 1010.67 1010.91 1011.23 1011.60 1011.96 1012.28 1012.51 1012.65 1012.72 1012.76 1012.82 1012.92 1013.09 1013.31 1013.56 1013.80 1014.00 1014.16 1014.27 1014.36 1014.46 1014.60 1014.80 1015.06 1015.35 1015.64 1015.92 1016.15
1009.44 1010.76 1011.85 1012.56 1012.82 1012.60 1011.98 1011.10 1010.13 1009.25 1008.58 1008.22 1008.15 1008.33 1008.67 1009.07 1009.44 1009.75 1009.99 1010.19 1010.39 1010.63 1010.93 1011.29 1011.66 1012.02 1012.31 1012.52 1012.64 1012.71 1012.76 1012.83 1012.95 1013.13 1013.34 1013.56 1013.76 1013.92 1014.03 1014.11 1014.18 1014.30 1014.47 1014.72 1015.02 1015.37 1015.71 1016.02 1016.28
1009.71 1010.89 1011.80 1012.35 1012.47 1012.19 1011.57 1010.76 1009.91 1009.16 1008.64 1008.37 1008.37 1008.56 1008.87 1009.21 1009.54 1009.81 1010.03 1010.24 1010.47 1010.74 1011.07 1011.43 1011.78 1012.10 1012.34 1012.50 1012.60 1012.65 1012.70 1012.79 1012.93 1013.11 1013.33 1013.53 1013.70 1013.82 1013.89 1013.94 1014.02 1014.14 1014.35 1014.65 1015.01 1015.40 1015.79 1016.14 1016.42
1009.77 1010.75 1011.45 1011.81 1011.82 1011.50 1010.94 1010.27 1009.62 1009.09 1008.76 1008.64 1008.72 1008.94 1009.23 1009.52 1009.79 1010.02 1010.22 1010.43 1010.68 1010.97 1011.29 1011.63 1011.95 1012.21 1012.38 1012.48 1012.53 1012.55 1012.60 1012.70 1012.86 1013.06 1013.28 1013.48 1013.63 1013.72 1013.77 1013.80 1013.87 1014.01 1014.25 1014.59 1015.00 1015.45 1015.87 1016.25 1016.54
1009.55 1010.29 1010.76 1010.94 1010.85 1010.53 1010.08 1009.61 1009.19 1008.92 1008.81 1008.87 1009.05 1009.30 1009.58 1009.83 1010.06 1010.25 1010.44 1010.67 1010.93 1011.24 1011.56 1011.88 1012.15 1012.33 1012.43 1012.45 1012.44 1012.43 1012.47 1012.58 1012.76 1012.98 1013.21 1013.42 1013.56 1013.63 1013.66 1013.69 1013.76 1013.91 1014.18 1014.55 1014.99 1015.47 1015.93 1016.32 1016.62
1009.06 1009.55 1009.79 1009.80 1009.63 1009.35 1009.04 1008.77 1008.61 1008.59 1008.71 1008.93 1009.21 1009.51 1009.78 1010.00 1010.20 1010.38 1010.59 1010.84 1011.14 1011.48 1011.82 1012.12 1012.34 1012.46 1012.48 1012.43 1012.35 1012.31 1012.33 1012.44 1012.64 1012.89 1013.14 1013.35 1013.50 1013.57 1013.60 1013.62 1013.69 1013.85 1014.13 1014.52 1014.99 1015.49 1015.96 1016.35 1016.65
1008.38 1008.63 1008.66 1008.53 1008.31 1008.08 1007.91 1007.84 1007.92 1008.13 1008.43 1008.80 1009.16 1009.48 1009.75 1009.96 1010.15 1010.35 1010.59 1010.89 1011.25 1011.63 1012.00 1012.30 1012.48 1012.55 1012.50 1012.39 1012.27 1012.19 1012.19 1012.31 1012.52 1012.79 1013.07 1013.30 1013.45 1013.54 1013.57 1013.59 1013.67 1013.84 1014.12 1014.52 1015.00 1015.50 1015.97 1016.36 1016.65
1007.66 1007.70 1007.56 1007.32 1007.08 1006.90 1006.84 1006.95 1007.21 1007.60 1008.04 1008.50 1008.91 1009.24 1009.50 1009.71 1009.90 1010.13 1010.43 1010.80 1011.23 1011.67 1012.07 1012.38 1012.55 1012.58 1012.49 1012.34 1012.18 1012.07 1012.07 1012.19 1012.42 1012.70 1013.00 1013.25 1013.43 1013.53 1013.58 1013.63 1013.72 1013.90 1014.19 1014.58 1015.05 1015.54 1015.99 1016.36 1016.63
1007.06 1006.94 1006.68 1006.36 1006.10 1005.97 1006.01 1006.24 1006.63 1007.12 1007.64 1008.13 1008.55 1008.87 1009.11 1009.31 1009.52 1009.79 1010.14 1010.58 1011.07 1011.56 1012.00 1012.33 1012.50 1012.52 1012.42 1012.25 1012.08 1011.97 1011.97 1012.10 1012.33 1012.63 1012.95 1013.22 1013.43 1013.56 1013.64 1013.72 1013.84 1014.03 1014.33 1014.72 1015.17 1015.63 1016.05 1016.39 1016.62
1006.74 1006.51 1006.16 1005.80 1005.53 1005.43 1005.53 1005.82 1006.27 1006.80 1007.33 1007.81 1008.19 1008.48 1008.69 1008.88 1009.11 1009.40 1009.79 1010.28 1010.81 1011.34 1011.80 1012.14 1012.33 1012.36 1012.27 1012.12 1011.97 1011.88 1011.90 1012.04 1012.29 1012.59 1012.91 1013.20 1013.44 1013.61 1013.74 1013.87 1014.02 1014.25 1014.56 1014.94 1015.36 1015.79 1016.17 1016.46 1016.65
1006.79 1006.48 1006.07 1005.69 1005.42 1005.33 1005.45 1005.76 1006.20 1006.71 1007.19 1007.62 1007.94 1008.18 1008.36 1008.53 1008.75 1009.06 1009.47 1009.97 1010.51 1011.04 1011.50 1011.85 1012.05 1012.10 1012.06 1011.95 1011.86 1011.82 1011.88 1012.04 1012.29 1012.59 1012.91 1013.21 1013.47 1013.68 1013.86 1014.04 1014.26 1014.52 1014.85 1015.23 1015.63 1016.01 1016.34 1016.57 1016.71
1007.17 1006.82 1006.37 1005.97 1005.69 1005.61 1005.72 1006.00 1006.40 1006.83 1007.24 1007.58 1007.83 1008.01 1008.16 1008.31 1008.53 1008.84 1009.24 1009.71 1010.22 1010.72 1011.15 1011.49 1011.70 1011.79 1011.81 1011.79 1011.77 1011.81 1011.91 1012.10 1012.35 1012.65 1012.95 1013.25 1013.52 1013.76 1014.00 1014.24 1014.51 1014.82 1015.17 1015.54 1015.91 1016.25 1016.52 1016.70 1016.79
1007.79 1007.38 1006.92 1006.51 1006.24 1006.14 1006.22 1006.45 1006.77 1007.10 1007.41 1007.66 1007.84 1007.97 1008.10 1008.25 1008.46 1008.76 1009.13 1009.56 1010.01 1010.44 1010.82 1011.12 1011.33 1011.48 1011.57 1011.65 1011.73 1011.86 1012.03 1012.25 1012.50 1012.77 1013.05 1013.32 1013.59 1013.85 1014.12 1014.41 1014.74 1015.09 1015.47 1015.83 1016.18 1016.47 1016.69 1016.82 1016.86
1008.45 1008.02 1007.55 1007.15 1006.89 1006.78 1006.83 1006.98 1007.20 1007.43 1007.62 1007.78 1007.89 1007.99 1008.11 1008.28 1008.50 1008.80 1009.14 1009.52 1009.89 1010.24 1010.54 1010.80 1011.01 1011.20 1011.38 1011.56 1011.76 1011.99 1012.23 1012.48 1012.73 1012.97 1013.20 1013.43 1013.67 1013.93 1014.23 1014.56 1014.92 1015.31 1015.70 1016.06 1016.38 1016.63 1016.79 1016.88 1016.89
1008.99 1008.56 1008.12 1007.75 1007.52 1007.42 1007.42 1007.50 1007.61 1007.71 1007.78 1007.84 1007.90 1007.99 1008.12 1008.32 1008.59 1008.90 1009.24 1009.57 1009.87 1010.13 1010.36 1010.57 1010.77 1011.00 1011.26 1011.55 1011.87 1012.19 1012.51 1012.79 1013.03 1013.23 1013.41 1013.58 1013.77 1014.01 1014.31 1014.65 1015.04 1015.45 1015.84 1016.19 1016.48 1016.69 1016.82 1016.87 1016.87
1009.30 1008.90 1008.53 1008.25 1008.07 1007.99 1007.97 1007.96 1007.95 1007.90 1007.84 1007.79 1007.78 1007.85 1008.02 1008.29 1008.62 1008.99 1009.34 1009.66 1009.91 1010.11 1010.27 1010.43 1010.63 1010.88 1011.21 1011.60 1012.02 1012.44 1012.82 1013.13 1013.36 1013.52 1013.64 1013.75 1013.89 1014.08 1014.36 1014.70 1015.09 1015.50 1015.88 1016.21 1016.47 1016.64 1016.75 1016.79 1016.80
1009.32 1009.02 1008.78 1008.63 1008.56 1008.53 1008.48 1008.39 1008.23 1008.01 1007.77 1007.59 1007.50 1007.55 1007.75 1008.08 1008.51 1008.96 1009.38 1009.72 1009.97 1010.13 1010.25 1010.37 1010.55 1010.83 1011.21 1011.67 1012.18 1012.68 1013.12 1013.46 1013.68 1013.80 1013.86 1013.91 1013.99 1014.14 1014.38 1014.70 1015.08 1015.47 1015.83 1016.14 1016.36 1016.51 1016.60 1016.65 1016.68
1009.10 1008.97 1008.93 1008.98 1009.06 1009.10 1009.04 1008.84 1008.50 1008.07 1007.62 1007.25 1007.04 1007.04 1007.26 1007.67 1008.20 1008.77 1009.28 1009.69 1009.97 1010.14 1010.24 1010.34 1010.51 1010.79 1011.20 1011.72 1012.29 1012.85 1013.33 1013.69 1013.91 1014.01 1014.03 1014.03 1014.05 1014.16 1014.37 1014.66 1015.02 1015.38 1015.72 1015.99 1016.18 1016.31 1016.38 1016.44 1016.51
1008.75 1008.86 1009.09 1009.38 1009.65 1009.77 1009.69 1009.37 1008.83 1008.14 1007.43 1006.83 1006.45 1006.35 1006.56 1007.02 1007.66 1008.35 1009.00 1009.51 1009.86 1010.07 1010.18 1010.28 1010.44 1010.72 1011.14 1011.68 1012.28 1012.87 1013.39 1013.77 1014.00 1014.09 1014.09 1014.05 1014.05 1014.13 1014.30 1014.57 1014.90 1015.24 1015.55 1015.79 1015.95 1016.05 1016.12 1016.19 1016.29
1008.36 1008.76 1009.31 1009.88 1010.34 1010.56 1010.46 1010.00 1009.22 1008.25 1007.24 1006.36 1005.76 1005.53 1005.69 1006.18 1006.91 1007.73 1008.51 1009.15 1009.60 1009.88 1010.03 1010.13 1010.29 1010.56 1010.97 1011.51 1012.12 1012.73 1013.27 1013.67 1013.91 1014.01 1014.00 1013.96 1013.95 1014.01 1014.17 1014.42 1014.73 1015.05 1015.33 1015.55 1015.69 1015.77 1015.82 1015.89 1016.01
1008.01 1008.73 1009.59 1010.44 1011.09 1011.40 1011.26 1010.65 1009.63 1008.36 1007.04 1005.87 1005.03 1004.64 1004.71 1005.20 1005.99 1006.92 1007.83 1008.60 1009.17 1009.54 1009.74 1009.88 1010.04 1010.30 1010.69 1011.22 1011.82 1012.43 1012.97 1013.39 1013.65 1013.76 1013.77 1013.74 1013.73 1013.80 1013.95 1014.19 1014.49 1014.80 1015.06 1015.26 1015.38 1015.44 1015.48 1015.54 1015.66
1007.70 1008.71 1009.86 1010.94 1011.76 1012.13 1011.95 1011.19 1009.96 1008.42 1006.80 1005.36 1004.29 1003.72 1003.69 1004.15 1004.98 1005.99 1007.01 1007.91 1008.59 1009.05 1009.33 1009.51 1009.68 1009.94 1010.31 1010.82 1011.40 1012.00 1012.54 1012.96 1013.24 1013.37 1013.41 1013.40 1013.41 1013.48 1013.64 1013.89 1014.18 1014.48 1014.73 1014.92 1015.03 1015.07 1015.10 1015.14 1015.24
1007.39 1008.62 1009.97 1011.23 1012.16 1012.57 1012.34 1011.47 1010.07 1008.31 1006.47 1004.81 1003.55 1002.83 1002.71 1003.13 1003.96 1005.02 1006.13 1007.12 1007.90 1008.45 1008.80 1009.03 1009.24 1009.50 1009.87 1010.35 1010.91 1011.49 1012.03 1012.45 1012.74 1012.89 1012.94 1012.95 1012.98 1013.07 1013.23 1013.48 1013.78 1014.08 1014.33 1014.52 1014.62 1014.66 1014.66 1014.67 1014.74
1006.99 1008.34 1009.81 1011.15 1012.13 1012.55 1012.29 1011.35 1009.85 1007.98 1006.01 1004.23 1002.85 1002.04 1001.84 1002.21 1003.03 1004.10 1005.24 1006.29 1007.15 1007.77 1008.20 1008.48 1008.73 1009.01 1009.39 1009.86 1010.41 1010.97 1011.49 1011.91 1012.20 1012.36 1012.43 1012.45 1012.49 1012.58 1012.75 1013.00 1013.30 1013.60 1013.86 1014.05 1014.15 1014.19 1014.17 1014.16 1014.18
1006.45 1007.80 1009.27 1010.61 1011.58 1011.99 1011.72 1010.78 1009.27 1007.40 1005.43 1003.64 1002.25 1001.40 1001.17 1001.49 1002.27 1003.31 1004.44 1005.50 1006.39 1007.06 1007.54 1007.88 1008.18 1008.50 1008.89 1009.38 1009.92 1010.47 1010.98 1011.38 1011.66 1011.82 1011.88 1011.91 1011.95 1012.04 1012.20 1012.45 1012.75 1013.05 1013.32 1013.52 1013.63 1013.67 1013.64 1013.60 1013.59
1005.75 1007.00 1008.38 1009.64 1010.55 1010.93 1010.68 1009.81 1008.40 1006.65 1004.81 1003.13 1001.81 1001.01 1000.77 1001.05 1001.76 1002.73 1003.79 1004.80 1005.66 1006.34 1006.84 1007.23 1007.58 1007.95 1008.38 1008.88 1009.43 1009.98 1010.47 1010.87 1011.13 1011.28 1011.34 1011.35 1011.38 1011.46 1011.62 1011.86 1012.15 1012.45 1012.73 1012.94 1013.07 1013.11 1013.09 1013.03 1012.98
1004.97 1006.06 1007.28 1008.40 1009.22 1009.58 1009.38 1008.63 1007.41 1005.88 1004.27 1002.79 1001.64 1000.92 1000.70 1000.94 1001.56 1002.40 1003.33 1004.22 1005.00 1005.63 1006.13 1006.54 1006.92 1007.34 1007.81 1008.34 1008.90 1009.45 1009.94 1010.32 1010.58 1010.71 1010.76 1010.77 1010.79 1010.87 1011.01 1011.24 1011.53 1011.83 1012.11 1012.34 1012.48 1012.54 1012.52 1012.46 1012.39
Thickness
5828 5824 5819 5805 5784 5767 5765 5779 5791 5789 5787 5793 5795 5788 5776 5767 5758 5747 5765 5771 5770 5768 5768 5768 5767 5767 5766 5766 5766 5765 5766 5766 5765 5764 5764 5764 5763 5763 5762 5761 5761 5760 5760 5759 5758 5756 5755 5754 5753
5831 5826 5814 5796 5772 5754 5764 5786 5789 5793 5795 5800 5796 5788 5778 5769 5773 5768 5768 5770 5770 5768 5767 5767 5766 5766 5765 5765 5764 5764 5764 5764 5763 5763 5763 5763 5762 5762 5761 5760 5759 5759 5759 5758 5757 5756 5755 5754 5753
5834 5829 5806 5787 5772 5764 5772 5791 5795 5801 5806 5803 5793 5789 5780 5772 5774 5771 5773 5773 5770 5768 5767 5766 5766 5765 5764 5763 5763 5763 5763 5762 5762 5762 5761 5761 5761 5760 5760 5759 5758 5758 5757 5757 5756 5755 5754 5753 5752
5833 5818 5803 5783 5778 5791 5797 5801 5805 5801 5802 5802 5794 5781 5783 5787 5783 5779 5777 5774 5771 5768 5767 5766 5765 5764 5763 5762 5763 5762 5762 5761 5761 5761 5760 5760 5760 5760 5759 5758 5758 5757 5757 5756 5755 5754 5754 5753 5752
5832 5810 5789 5779 5789 5805 5814 5815 5813 5803 5798 5796 5793 5777 5775 5787 5789 5783 5778 5775 5772 5769 5767 5766 5765 5764 5763 5762 5762 5762 5761 5760 5760 5760 5759 5759 5759 5759 5758 5758 5757 5757 5756 5756 5755 5754 5754 5753 5752
5820 5807 5782 5776 5794 5810 5817 5821 5815 5803 5796 5794 5790 5778 5774 5787 5785 5781 5780 5776 5774 5771 5768 5766 5765 5764 5763 5762 5761 5761 5760 5759 5759 5759 5758 5758 5758 5758 5758 5757 5757 5756 5756 5755 5755 5754 5753 5753 5752
5817 5802 5789 5792 5798 5805 5816 5825 5816 5804 5798 5797 5797 5779 5776 5783 5787 5785 5781 5777 5774 5772 5769 5767 5765 5764 5763 5762 5761 5761 5760 5759 5758 5758 5758 5758 5758 5757 5757 5757 5756 5756 5755 5755 5754 5754 5753 5752 5752
5835 5811 5799 5800 5801 5806 5824 5829 5825 5815 5806 5810 5805 5783 5776 5786 5791 5787 5781 5777 5774 5772 5770 5767 5765 5764 5763 5762 5761 5760 5760 5759 5758 5758 5758 5757 5757 5757 5757 5756 5756 5755 5755 5754 5754 5754 5753 5752 5752
5847 5807 5795 5804 5810 5814 5829 5826 5826 5829 5818 5813 5812 5803 5800 5799 5794 5785 5778 5773 5771 5771 5770 5768 5766 5764 5763 5762 5761 5760 5760 5759 5758 5758 5757 5757 5756 5756 5756 5756 5756 5755 5754 5754 5754 5753 5753 5752 5752
5836 5805 5813 5832 5836 5830 5833 5831 5827 5818 5808 5804 5804 5806 5806 5800 5793 5784 5778 5773 5772 5771 5771 5770 5768 5766 5764 5763 5761 5760 5760 5759 5758 5758 5756 5755 5755 5755 5756 5756 5756 5755 5755 5754 5753 5753 5753 5752 5752
5843 5828 5839 5848 5852 5847 5837 5835 5836 5818 5802 5806 5804 5803 5803 5799 5793 5788 5784 5781 5779 5778 5776 5774 5772 5769 5766 5764 5762 5761 5760 5759 5758 5757 5756 5755 5754 5755 5755 5755 5755 5755 5754 5754 5753 5753 5752 5752 5752
5849 5851 5855 5855 5859 5852 5843 5839 5832 5826 5821 5826 5823 5817 5809 5800 5795 5792 5788 5786 5785 5782 5780 5778 5775 5772 5769 5767 5764 5762 5760 5759 5759 5758 5756 5755 5755 5754 5755 5754 5754 5754 5754 5753 5753 5752 5752 5752 5752
5849 5851 5859 5862 5860 5857 5851 5841 5837 5832 5835 5833 5826 5819 5811 5805 5801 5798 5796 5793 5789 5785 5783 5781 5779 5776 5772 5769 5767 5764 5763 5762 5761 5760 5758 5757 5756 5755 5755 5754 5754 5754 5753 5753 5752 5752 5752 5752 5751
5853 5855 5857 5859 5857 5858 5847 5840 5836 5831 5838 5830 5824 5818 5815 5810 5806 5801 5798 5794 5792 5789 5786 5785 5782 5779 5776 5773 5770 5768 5766 5764 5763 5761 5760 5759 5757 5756 5756 5755 5754 5754 5754 5753 5752 5752 5752 5752 5752
5859 5846 5847 5853 5856 5855 5847 5827 5832 5839 5838 5829 5824 5821 5818 5815 5812 5807 5804 5800 5798 5794 5791 5788 5785 5783 5779 5776 5774 5772 5770 5767 5765 5763 5761 5760 5758 5757 5756 5755 5754 5755 5754 5754 5753 5752 5751 5751 5752
5844 5829 5820 5842 5853 5854 5837 5811 5833 5842 5836 5827 5826 5824 5820 5817 5817 5815 5811 5807 5803 5799 5794 5791 5790 5785 5782 5779 5777 5774 5772 5769 5767 5765 5763 5761 5760 5759 5757 5756 5755 5755 5755 5754 5752 5751 5750 5750 5750
5817 5804 5811 5831 5851 5850 5836 5819 5836 5843 5837 5829 5828 5827 5823 5818 5818 5818 5817 5813 5808 5804 5799 5794 5792 5788 5785 5782 5780 5777 5775 5772 5770 5767 5765 5763 5762 5760 5758 5757 5756 5756 5755 5754 5753 5752 5750 5749 5750
5799 5803 5810 5820 5842 5844 5832 5827 5837 5842 5839 5834 5831 5828 5825 5822 5821 5823 5821 5818 5813 5809 5804 5799 5795 5792 5788 5785 5781 5778 5776 5774 5772 5769 5767 5765 5764 5762 5760 5758 5757 5756 5754 5753 5752 5751 5751 5750 5750
5819 5813 5810 5826 5847 5839 5830 5827 5833 5840 5838 5835 5832 5829 5827 5827 5829 5828 5825 5821 5816 5810 5806 5802 5798 5794 5791 5786 5780 5776 5774 5774 5773 5772 5771 5768 5766 5764 5762 5760 5758 5756 5754 5753 5753 5751 5750 5749 5750
5822 5812 5812 5826 5844 5838 5826 5826 5836 5840 5840 5842 5838 5834 5831 5828 5827 5827 5825 5822 5818 5813 5809 5805 5801 5798 5795 5791 5787 5783 5780 5777 5776 5775 5773 5772 5770 5767 5765 5762 5760 5758 5755 5754 5753 5751 5748 5748 5749
5818 5813 5814 5816 5831 5835 5823 5811 5821 5834 5841 5842 5843 5842 5839 5836 5831 5829 5826 5824 5821 5817 5814 5811 5806 5802 5799 5796 5790 5786 5781 5778 5776 5774 5774 5774 5772 5770 5767 5765 5763 5760 5758 5755 5754 5752 5749 5745 5747
5807 5830 5830 5825 5810 5799 5812 5781 5807 5823 5828 5834 5838 5839 5838 5840 5837 5833 5830 5826 5824 5823 5820 5816 5810 5806 5802 5798 5792 5786 5780 5776 5777 5777 5776 5775 5774 5772 5769 5767 5765 5762 5760 5757 5756 5755 5752 5748 5744
5824 5839 5832 5825 5810 5795 5800 5784 5795 5815 5815 5826 5836 5840 5841 5843 5842 5838 5837 5833 5831 5828 5823 5818 5813 5808 5805 5801 5796 5790 5785 5783 5781 5779 5777 5775 5774 5773 5771 5769 5767 5764 5762 5760 5758 5756 5754 5751 5747
5839 5829 5819 5806 5789 5769 5790 5783 5784 5804 5816 5826 5837 5843 5844 5845 5845 5842 5840 5836 5831 5828 5824 5819 5813 5809 5807 5803 5799 5794 5789 5785 5781 5779 5776 5775 5773 5772 5772 5770 5768 5766 5764 5762 5760 5758 5755 5753 5750
5824 5792 5765 5761 5752 5760 5789 5784 5788 5821 5834 5837 5838 5842 5845 5845 5843 5840 5836 5832 5829 5827 5824 5820 5814 5810 5807 5804 5800 5796 5792 5788 5784 5781 5778 5775 5773 5772 5772 5772 5770 5767 5766 5764 5761 5758 5756 5754 5751
5812 5792 5759 5746 5745 5758 5781 5778 5799 5830 5839 5843 5844 5845 5845 5842 5840 5838 5836 5833 5831 5828 5825 5820 5815 5811 5808 5804 5800 5798 5794 5791 5787 5784 5781 5778 5776 5775 5775 5773 5771 5769 5767 5765 5762 5759 5756 5754 5751
5807 5794 5793 5768 5760 5751 5761 5781 5804 5825 5828 5832 5835 5837 5838 5840 5839 5838 5837 5833 5830 5828 5825 5821 5816 5811 5808 5805 5801 5797 5795 5792 5789 5786 5784 5781 5779 5778 5776 5774 5771 5769 5767 5764 5761 5758 5756 5754 5751
5819 5808 5779 5759 5742 5737 5754 5767 5777 5798 5810 5819 5823 5824 5830 5836 5837 5837 5835 5833 5832 5829 5825 5821 5815 5811 5807 5804 5801 5799 5795 5793 5790 5787 5784 5782 5781 5779 5777 5774 5772 5769 5767 5764 5761 5758 5756 5752 5750
5802 5796 5779 5760 5756 5739 5735 5756 5802 5803 5811 5814 5817 5821 5825 5829 5831 5833 5833 5832 5830 5826 5822 5817 5813 5809 5804 5802 5800 5797 5795 5792 5790 5787 5785 5783 5781 5779 5776 5774 5771 5769 5766 5763 5759 5757 5754 5751 5748
5803 5793 5775 5756 5751 5749 5742 5757 5809 5809 5813 5814 5814 5818 5823 5827 5829 5829 5829 5827 5824 5821 5817 5813 5810 5807 5804 5802 5799 5796 5794 5792 5789 5786 5785 5783 5780 5778 5775 5773 5770 5767 5764 5761 5758 5755 5753 5749 5746